[Iaude] MPEC A113: 2024 AS2 [a=1.75,e=0.37,i=29.4,H=19.5]

mpec at marsden.cfa.harvard.edu mpec at marsden.cfa.harvard.edu
Wed Jan 10 13:48:00 EST 2024


M.P.E.C. 2024-A113                             Issued 2024 January 10, 18:46 UT

     The Minor Planet Electronic Circulars contain information on unusual
         minor planets, routine data on comets and natural satellites,
         and occasional editorial announcements.  They are published
    on behalf of Division F of the International Astronomical Union by the
          Minor Planet Center, Smithsonian Astrophysical Observatory,
                          Cambridge, MA 02138, U.S.A.
			  
             Prepared using the Tamkin Foundation Computer Network

                              MPC at CFA.HARVARD.EDU
            URL https://www.minorplanetcenter.net/    ISSN 1523-6714

                                    2024 AS2                                    


Observations:
     K24A02S* C2024 01 07.52290508 14 15.220+04 42 23.75         21.51wXEA113F51
     K24A02S  C2024 01 07.53436308 14 13.928+04 42 10.16         21.47wXEA113F51
     K24A02S  C2024 01 07.55710108 14 11.373+04 41 43.89         21.33wXEA113F51
     K24A02S  C2024 01 07.64509308 14 01.530+04 40 01.20         21.33GVEA113F52
     K24A02S  C2024 01 07.64591108 14 01.443+04 40 00.28         21.32GVEA113F52
     K24A02S |C2024 01 09.15036008 11 15.020+04 10 58.50         21.3 GVEA113807
     K24A02S |C2024 01 09.15874008 11 14.040+04 10 48.50         21.2 GVEA113807
     K24A02S |C2024 01 09.16712008 11 13.050+04 10 39.30         21.3 GVEA113807
     K24A02S KC2024 01 09.30025408 10 57.896+04 07 54.34         21.45GVEA113V06
     K24A02S KC2024 01 09.30136108 10 57.796+04 07 53.11         21.38GVEA113V06
     K24A02S KC2024 01 09.30246808 10 57.659+04 07 51.78         20.97GVEA113V06
     K24A02S KC2024 01 09.30357408 10 57.533+04 07 50.48         21.01GVEA113V06
     K24A02S  C2024 01 10.25664908 09 08.575+03 49 21.67         20.9 GVEA113654
     K24A02S  C2024 01 10.26937908 09 07.098+03 49 06.66         20.9 GVEA113654

Observer details:
654 Table Mountain Observatory, Wrightwood-PHMC.  Observers N. Evans, P. Choi,
    N. Saini, C. Zhai, R. Trahan, M. Shao.  1.0-m Reflector + CCD.
807 Cerro Tololo Observatory, La Serena.  Observers T. Linder, R. Holmes.
    0.61-m f/11 Ritchey-Chretien + CCD.
F51 Pan-STARRS 1, Haleakala.  Observers J. Herman, T. Lowe, P. Minguez, A.
    Schultz, I. Smith.  Measurers K. Chambers, T. de Boer, J. Fairlamb, H.
    Gao, M. Huber, C.-C. Lin, E. Magnier, Y. Ramanjooloo, R. Wainscoat, R.
    Weryk.  1.8-m Ritchey-Chretien + CCD.
F52 Pan-STARRS 2, Haleakala.  Observers J. Herman, T. Lowe, P. Minguez, A.
    Schultz, I. Smith.  Measurers K. Chambers, T. de Boer, J. Fairlamb, H.
    Gao, M. Huber, C.-C. Lin, E. Magnier, Y. Ramanjooloo, R. Wainscoat, R.
    Weryk.  1.8-m Ritchey-Chretien + CCD.
V06 Catalina Sky Survey-Kuiper.  Observer K. W. Wierzchos.  Measurers E. C.
    Beshore, D. Fay, J. B. Fazekas, D. C. Fuls, A. R. Gibbs, A. D. Grauer, H.
    Groeller, J. K. Hogan, R. A. Kowalski, S. M. Larson, G. J. Leonard, D.
    Rankin, R. L. Seaman, F. C. Shelly, K. W. Wierzchos.  1.55-m reflector +
    1K CCD.

Orbital elements:
2024 AS2                                                 Earth MOID = 0.1657 AU
Epoch 2023 Sept. 13.0 TT = JDT 2460200.5                MPC                     
M 228.92264              (2000.0)            P               Q                  
n   0.42512253     Peri.  317.31939     -0.42487985     +0.76754881             
a   1.7517010      Node   282.00411     -0.64013450     -0.62962273             
e   0.3658867      Incl.   29.38485     -0.64008198     +0.12018337             
P   2.32           H   19.54          G   0.15           U   9                  
Residuals in seconds of arc
240107 F51  0.1+  0.1+    240109 807  0.2+  0.0     240109 V06  0.0   0.0
240107 F51  0.0   0.1-    240109 807  0.1+  0.2-    240109 V06  0.1+  0.0
240107 F51  0.0   0.1+    240109 807  0.2-  0.3+    240110 654  0.2-  0.1+
240107 F52  0.0   0.0     240109 V06  0.3-  0.0     240110 654  0.2+  0.1-
240107 F52  0.0   0.0     240109 V06  0.1+  0.0

Ephemeris:
2024 AS2                 a,e,i = 1.75, 0.37, 29                  q = 1.1108
Date    TT    R. A. (2000) Decl.     Delta      r    Elong.  Phase     V
2023 12 11    08 45 28.8 +12 56 04   1.2358  1.9980   127.9    22.9    22.6
...
2023 12 26    08 33 15.3 +08 39 32   1.0546  1.9382   144.0    17.4    22.0
...
2024 01 03    08 22 00.5 +06 09 40   0.9780  1.9048   152.4    13.8    21.7
...
2024 01 09    08 11 31.8 +04 13 49   0.9316  1.8790   157.7    11.4    21.5
2024 01 10    08 09 37.9 +03 54 26   0.9249  1.8746   158.4    11.1    21.4
2024 01 11    08 07 41.8 +03 35 04   0.9185  1.8703   159.0    10.8    21.4
...
2024 01 17    07 55 24.2 +01 40 06   0.8864  1.8437   160.7    10.2    21.3
...
2024 01 25    07 37 56.8 -00 45 02   0.8605  1.8075   156.8    12.4    21.2
...
2024 02 09    07 06 51.7 -04 26 33   0.8604  1.7370   140.2    21.3    21.5

A. U. Tomatic                (C) Copyright 2024 MPC           M.P.E.C. 2024-A113





More information about the Iaude mailing list